Location: Bazugues
(43.4465°N, 0.3432°E)
Time: 10:58:45
(UTC+00:00)

Meteor 2-13 Rocket - Pass Details

Date: 12 January 2026
Orbit: 935 x 958 km, 82.5° (Epoch: 10 February)

Event Time Altitude Azimuth Distance (km) Brightness Sun altitude
Rises 18:19:03 0° 179° (S) 3,619 7.7 -16.7°
Reaches altitude 10° 18:21:33 10° 177° (S) 2,679 6.9 -17.2°
Maximum altitude 18:27:38 70° 95° (E) 1,015 4.4 -18.2°
Drops below altitude 10° 18:33:47 10° 13° (NNE) 2,698 6.6 -19.3°
Sets 18:36:17 0° 11° (N) 3,647 7.3 -19.8°
